{"data":{"norad_id":64521,"intl_designator":"2025-134X","name":"KUIPER-00061","alt_names":[],"object_type":"PAYLOAD","status":"ACTIVE","operator":null,"country":"US","launch_date":"2025-06-23","launch_site_code":"AFETR","launch_vehicle":null,"mission":null,"orbit_class":"UNKNOWN","rcs_meters":null,"size_class":null,"mass_kg":null,"dimensions":null,"purposes":[],"wikipedia_slug":null,"has_3d_model":false,"image_url":null,"decayed_at":null,"tle_current":{"epoch":"2026-05-25T00:16:29.192736Z","epoch_age_seconds":74852,"freshness":"FRESH","line1":"1 64521U 25134X   26145.01144899  .00003235  00000+0  45394-3 0  9997","line2":"2 64521  51.9004 250.5976 0000240 123.7144 236.3842 14.79852060 51434","mean_motion":14.7985206,"eccentricity":2.4e-5,"inclination_deg":51.9004,"raan_deg":250.5976,"arg_perigee_deg":123.7144,"mean_anomaly_deg":236.3842,"bstar":0.00045394,"rev_number":5143,"period_min":97.307024054823,"perigee_km":629.62295806813,"apogee_km":629.95933861925,"semimajor_km":7007.9281483437,"source":"CELESTRAK","updated_at":"2026-05-25T13:38:04.577433Z"}}}